When you browse on this site, cookies collect data to enhance your experience and personalize the content and advertising you see.
Visit our Privacy Policy to learn more. By continuing to use the site, you agree to this use of cookies and data.
  • In Österreich
  • Länderverzeichnis
  • Für 7 Tage
  • Wassertemperatur
  • Wetterkarte
  • News
  • Widgets
  • user-avatar
    Anmelden

    Stündliche Wetter Wavre

    Heute, 20 August, Dienstag

    Zeit Temperatur Niederschläge Wind Luftdruck Luftfeuchtigkeit
    00:00 +12°C° 0 mm 3 m/S 759 mmHg 80%
    01:00 +12°C° 0 mm 3 m/S 759 mmHg 83%
    02:00 +11°C° 0 mm 3 m/S 759 mmHg 85%
    03:00 +11°C° 0 mm 3 m/S 760 mmHg 87%
    04:00 +11°C° 0 mm 3 m/S 760 mmHg 86%
    05:00 +12°C° 0 mm 3 m/S 760 mmHg 86%
    06:00 +12°C° 0 mm 3 m/S 760 mmHg 85%
    07:00 +14°C° 0 mm 3 m/S 760 mmHg 79%
    08:00 +17°C° 0 mm 3 m/S 761 mmHg 72%
    09:00 +19°C° 0 mm 3 m/S 761 mmHg 65%
    10:00 +20°C° 0 mm 4 m/S 761 mmHg 60%
    11:00 +21°C° 0 mm 4 m/S 761 mmHg 55%
    12:00 +22°C° 0 mm 4 m/S 761 mmHg 49%
    13:00 +22°C° 0.1 mm 4 m/S 761 mmHg 49%
    14:00 +22°C° 0.1 mm 4 m/S 761 mmHg 49%
    15:00 +22°C° 0.1 mm 4 m/S 761 mmHg 49%
    16:00 +21°C° 0.1 mm 3 m/S 761 mmHg 54%
    17:00 +20°C° 0.1 mm 3 m/S 762 mmHg 59%
    18:00 +19°C° 0.1 mm 2 m/S 762 mmHg 64%
    19:00 +17°C° 0 mm 2 m/S 762 mmHg 68%
    20:00 +16°C° 0 mm 1 m/S 763 mmHg 72%
    21:00 +14°C° 0 mm 1 m/S 763 mmHg 76%
    22:00 +13°C° 0 mm 1 m/S 763 mmHg 78%
    23:00 +13°C° 0 mm 1 m/S 763 mmHg 80%

    Morgen, 21 August, Mittwoch

    Zeit Temperatur Niederschläge Wind Luftdruck Luftfeuchtigkeit
    00:00 +13°C° 0 mm 1 m/S 764 mmHg 82%
    01:00 +12°C° 0 mm 1 m/S 764 mmHg 83%
    02:00 +12°C° 0 mm 1 m/S 764 mmHg 84%
    03:00 +12°C° 0 mm 1 m/S 764 mmHg 85%
    04:00 +12°C° 0 mm 1 m/S 764 mmHg 84%
    05:00 +13°C° 0 mm 1 m/S 764 mmHg 83%
    06:00 +13°C° 0 mm 1 m/S 764 mmHg 81%
    07:00 +15°C° 0 mm 1 m/S 764 mmHg 74%
    08:00 +18°C° 0 mm 1 m/S 764 mmHg 67%
    09:00 +20°C° 0 mm 1 m/S 764 mmHg 60%
    10:00 +21°C° 0 mm 1 m/S 764 mmHg 54%
    11:00 +22°C° 0 mm 1 m/S 764 mmHg 49%
    12:00 +23°C° 0 mm 1 m/S 764 mmHg 43%
    13:00 +23°C° 0 mm 1 m/S 763 mmHg 41%
    14:00 +24°C° 0 mm 1 m/S 763 mmHg 39%
    15:00 +24°C° 0 mm 1 m/S 763 mmHg 37%
    16:00 +23°C° 0 mm 1 m/S 762 mmHg 41%
    17:00 +22°C° 0 mm 1 m/S 762 mmHg 46%
    18:00 +21°C° 0 mm 1 m/S 762 mmHg 50%
    19:00 +20°C° 0 mm 1 m/S 763 mmHg 52%
    20:00 +18°C° 0 mm 1 m/S 763 mmHg 55%
    21:00 +15°C° 0 mm 0 m/S 763 mmHg 57%
    22:00 +14°C° 0 mm 0 m/S 763 mmHg 59%
    23:00 +14°C° 0 mm 0 m/S 763 mmHg 60%

    übermorgen, 22 August, Donnerstag

    Zeit Temperatur Niederschläge Wind Luftdruck Luftfeuchtigkeit
    00:00 +13°C° 0 mm 0 m/S 763 mmHg 62%
    01:00 +13°C° 0 mm 0 m/S 762 mmHg 63%
    02:00 +14°C° 0 mm 1 m/S 762 mmHg 64%
    03:00 +13°C° 0 mm 1 m/S 762 mmHg 66%
    04:00 +14°C° 0 mm 1 m/S 762 mmHg 66%
    05:00 +14°C° 0 mm 1 m/S 762 mmHg 65%
    06:00 +15°C° 0 mm 1 m/S 763 mmHg 65%
    07:00 +18°C° 0 mm 1 m/S 763 mmHg 60%
    08:00 +20°C° 0 mm 1 m/S 763 mmHg 54%
    09:00 +21°C° 0 mm 2 m/S 763 mmHg 48%
    10:00 +23°C° 0 mm 2 m/S 763 mmHg 46%
    11:00 +24°C° 0 mm 2 m/S 763 mmHg 43%
    12:00 +25°C° 0 mm 2 m/S 762 mmHg 41%
    13:00 +25°C° 0 mm 2 m/S 762 mmHg 40%
    14:00 +26°C° 0 mm 2 m/S 762 mmHg 39%
    15:00 +26°C° 0 mm 2 m/S 762 mmHg 38%
    16:00 +25°C° 0 mm 2 m/S 762 mmHg 44%
    17:00 +24°C° 0 mm 2 m/S 762 mmHg 49%
    18:00 +21°C° 0 mm 2 m/S 762 mmHg 54%
    19:00 +19°C° 0 mm 2 m/S 763 mmHg 59%
    20:00 +18°C° 0 mm 2 m/S 763 mmHg 65%
    21:00 +16°C° 0 mm 2 m/S 763 mmHg 70%
    22:00 +15°C° 0 mm 2 m/S 763 mmHg 72%
    23:00 +15°C° 0 mm 1 m/S 763 mmHg 74%

    23 August, Freitag

    Zeit Temperatur Niederschläge Wind Luftdruck Luftfeuchtigkeit
    00:00 +14°C° 0 mm 1 m/S 763 mmHg 77%
    01:00 +14°C° 0 mm 1 m/S 763 mmHg 78%
    02:00 +14°C° 0 mm 1 m/S 763 mmHg 80%
    03:00 +14°C° 0 mm 1 m/S 762 mmHg 81%
    04:00 +14°C° 0 mm 1 m/S 762 mmHg 80%
    05:00 +15°C° 0 mm 1 m/S 762 mmHg 78%
    06:00 +15°C° 0 mm 1 m/S 762 mmHg 77%
    07:00 +18°C° 0 mm 2 m/S 762 mmHg 70%
    08:00 +20°C° 0 mm 2 m/S 763 mmHg 62%
    09:00 +23°C° 0 mm 2 m/S 763 mmHg 55%
    10:00 +25°C° 0 mm 2 m/S 762 mmHg 51%
    11:00 +26°C° 0 mm 2 m/S 762 mmHg 47%
    12:00 +27°C° 0 mm 2 m/S 762 mmHg 43%
    13:00 +28°C° 0 mm 2 m/S 761 mmHg 42%
    14:00 +28°C° 0 mm 2 m/S 761 mmHg 41%
    15:00 +29°C° 0 mm 3 m/S 761 mmHg 40%
    16:00 +27°C° 0 mm 3 m/S 761 mmHg 46%
    17:00 +26°C° 0 mm 3 m/S 760 mmHg 52%
    18:00 +24°C° 0 mm 3 m/S 760 mmHg 58%
    19:00 +22°C° 0 mm 3 m/S 760 mmHg 62%
    20:00 +20°C° 0 mm 3 m/S 760 mmHg 67%
    21:00 +19°C° 0 mm 3 m/S 760 mmHg 72%
    22:00 +18°C° 0 mm 3 m/S 760 mmHg 73%
    23:00 +18°C° 0 mm 2 m/S 760 mmHg 74%

    24 August, Samstag

    Zeit Temperatur Niederschläge Wind Luftdruck Luftfeuchtigkeit
    00:00 +17°C° 0 mm 2 m/S 760 mmHg 76%
    01:00 +17°C° 0 mm 2 m/S 759 mmHg 77%
    02:00 +16°C° 0 mm 2 m/S 759 mmHg 78%
    03:00 +16°C° 0 mm 2 m/S 759 mmHg 78%
    04:00 +16°C° 0 mm 2 m/S 759 mmHg 76%
    05:00 +17°C° 0 mm 2 m/S 759 mmHg 74%
    06:00 +18°C° 0 mm 1 m/S 759 mmHg 72%
    07:00 +20°C° 0 mm 2 m/S 758 mmHg 65%
    08:00 +23°C° 0 mm 2 m/S 758 mmHg 58%
    09:00 +25°C° 0 mm 2 m/S 758 mmHg 51%
    10:00 +27°C° 0 mm 2 m/S 758 mmHg 47%
    11:00 +28°C° 0 mm 2 m/S 757 mmHg 43%
    12:00 +29°C° 0 mm 2 m/S 757 mmHg 39%
    13:00 +30°C° 0 mm 2 m/S 757 mmHg 38%
    14:00 +30°C° 0 mm 2 m/S 756 mmHg 37%
    15:00 +30°C° 0 mm 1 m/S 756 mmHg 36%
    16:00 +29°C° 0 mm 2 m/S 756 mmHg 42%
    17:00 +28°C° 0 mm 2 m/S 756 mmHg 47%
    18:00 +26°C° 0 mm 2 m/S 756 mmHg 53%
    19:00 +25°C° 0 mm 2 m/S 756 mmHg 57%
    20:00 +23°C° 0 mm 2 m/S 756 mmHg 60%
    21:00 +21°C° 0 mm 2 m/S 756 mmHg 63%
    22:00 +20°C° 0 mm 2 m/S 756 mmHg 65%
    23:00 +20°C° 0 mm 2 m/S 756 mmHg 66%

    25 August, Sonntag

    Zeit Temperatur Niederschläge Wind Luftdruck Luftfeuchtigkeit
    00:00 +20°C° 0 mm 1 m/S 756 mmHg 68%
    01:00 +20°C° 0 mm 1 m/S 755 mmHg 69%
    02:00 +20°C° 0 mm 1 m/S 755 mmHg 71%
    03:00 +20°C° 0 mm 1 m/S 755 mmHg 72%
    04:00 +20°C° 0 mm 1 m/S 755 mmHg 73%
    05:00 +20°C° 0 mm 1 m/S 756 mmHg 74%
    06:00 +19°C° 0 mm 0 m/S 756 mmHg 76%
    07:00 +23°C° 0 mm 1 m/S 756 mmHg 68%
    08:00 +25°C° 0 mm 1 m/S 756 mmHg 61%
    09:00 +27°C° 0 mm 1 m/S 756 mmHg 54%
    10:00 +28°C° 0 mm 2 m/S 756 mmHg 50%
    11:00 +29°C° 0 mm 2 m/S 756 mmHg 46%
    12:00 +30°C° 0 mm 2 m/S 756 mmHg 42%
    13:00 +30°C° 0 mm 2 m/S 757 mmHg 41%
    14:00 +31°C° 0 mm 2 m/S 757 mmHg 39%
    15:00 +31°C° 0 mm 2 m/S 757 mmHg 38%
    16:00 +29°C° 0 mm 3 m/S 757 mmHg 43%
    17:00 +28°C° 0 mm 3 m/S 757 mmHg 48%
    18:00 +26°C° 0 mm 3 m/S 757 mmHg 54%
    19:00 +25°C° 0 mm 3 m/S 758 mmHg 56%
    20:00 +24°C° 0 mm 2 m/S 758 mmHg 59%
    21:00 +23°C° 0 mm 2 m/S 759 mmHg 61%
    22:00 +21°C° 0 mm 2 m/S 759 mmHg 65%
    23:00 +20°C° 0 mm 2 m/S 759 mmHg 69%
    Mehr zeigen